Location: Newark
(34.0131°N, 4.3314°W)
Time: 01:15:31
(UTC+00:00)

SR - Pass Details

Date: 16 October 2019
Orbit: 574 x 882 km, 66.7° (Epoch: 11 November)

Event Time Altitude Azimuth Distance (km) Brightness Sun altitude
Rises 23:08:54 0° 217° (SW) 2,958 - -62.1°
Reaches altitude 10° 23:11:09 10° 222° (SW) 2,094 - -62.4°
Maximum altitude 23:15:48 53° 300° (WNW) 876 - -62.8°
Drops below altitude 10° 23:20:56 10° 17° (NNE) 2,308 - -63.2°
Sets 23:23:31 0° 22° (NNE) 3,289 - -63.5°
